Regional Weather Roundup
Issued by NWS Charleston, SC

Current Version | Previous Version | Graphics & Text | Print | Product List | Glossary On
Versions: 1 2 3 4 5 6 7 8 9 10 11 12 13 14 15 16 17 18 19 20 21 22 23 24 25 26 27 28 29 30 31 32 33 34 35 36 37 38 39 40 41 42 43 44 45 46 47 48 49 50
000 ASUS42 KCHS 311411 RWRCHS REGIONAL WEATHER ROUNDUP NATIONAL WEATHER SERVICE CHARLESTON SC 900 AM EST SAT JAN 31 2015 NOTE: "FAIR" INDICATES FEW OR NO CLOUDS BELOW 12,000 FEET WITH NO SIGNIFICANT WEATHER AND/OR OBSTRUCTIONS TO VISIBILITY. NOT ALL STATIONS ARE QUALITY CONTROLLED BY THE NATIONAL WEATHER SERVICE. USE DATA WITH CAUTION...ESPECIALLY DEWPOINT OBSERVATIONS. SCZ027-030-031-034>040-042>050-311500- ...SOUTHEAST SOUTH CAROLINA... CITY SKY/WX TMP DP RH WIND PRES REMARKS N CHARLESTON MOSUNNY 39 14 36 NE7 30.38R WCI 34 WATERFRONT PRK N/A 37 N/A N/A NE12 N/A WCI 30 MOUNT PLEASANT FAIR 36 14 41 NE3 30.38R PINOPOLIS N/A 37 18 44 NE7 30.30R WCI 32 MONCKS CORNER FAIR 37 12 35 NE9 30.39R WCI 31 SUMMERVILLE FAIR 36 23 60 CALM 30.39S BEAUFORT MCAS SUNNY 38 20 48 NE9 30.39R WCI 31 BEAUFORT ARPT FAIR 39 23 52 NE10 30.38R WCI 32 HILTON HEAD IS SUNNY N/A N/A N/A N6 30.39R WALTERBORO SUNNY 36 19 51 NE3 30.38S ALLENDALE FAIR 36 21 55 CALM 30.37R ...SOUTHERN MIDLANDS AND PEE DEE... CITY SKY/WX TMP DP RH WIND PRES REMARKS GEORGETOWN NOT AVBL KINGSTREE NOT AVBL ORANGEBURG SUNNY 35 17 47 NE5 30.37S WCI 31 BARNWELL FAIR 36 23 60 CALM 30.38R AIKEN FAIR 32 23 69 CALM 30.39R MANNING FAIR 34 19 55 CALM 30.39R COLUMBIA SUNNY 31 24 75 CALM 30.38S SUMTER SUNNY 35 11 38 N7 30.36F WCI 29 FLORENCE SUNNY 33 13 43 N5 30.38R WCI 29 MYRTLE BEACH SUNNY 34 14 44 N10 30.39R WCI 26 N MYRTLE BEACH SUNNY 35 12 38 N12 30.37R WCI 27 $$ GAZ063-065-086>088-099>101-113>116-118-119-134>141-150-311500- ...SOUTHEAST GEORGIA... CITY SKY/WX TMP DP RH WIND PRES REMARKS SAVANNAH ARPT MOSUNNY 39 25 57 E7 30.38R WCI 34 HUNTER AAF SUNNY 40 26 57 NE5 30.36R WCI 37 FORT STEWART SUNNY 37 26 63 NE5 30.36R WCI 34 STATESBORO SUNNY 37 26 63 E3 30.38R SYLVANIA SUNNY 37 26 65 E5 30.38R WCI 33 CLAXTON FAIR 36 32 87 E3 30.38R ...CSRA...CENTRAL AND FAR SOUTHEAST GEORGIA... CITY SKY/WX TMP DP RH WIND PRES REMARKS THOMSON SUNNY 31 29 92 CALM 30.42R AUGUSTA-BUSH SUNNY 33 26 75 NW3 30.40R AUGUSTA-DANIEL SUNNY 38 19 46 N3 30.38R SWAINSBORO FAIR 41 10 28 NE3 30.39R VIDALIA SUNNY 37 27 65 NE5 30.37R WCI 34 EASTMAN FAIR 35 32 87 CALM 30.40R HAZLEHURST FAIR 38 28 67 NE3 30.37R ALMA SUNNY 40 23 50 NE8 30.37R WCI 34 WAYCROSS SUNNY 44 31 58 E7 30.36R JESUP FAIR 43 32 65 CALM 30.36S BAXLEY FAIR 41 28 60 NE6 30.37R BRUNSWICK SUNNY 45 34 65 NE6 30.36S SAINT SIMONS SUNNY 49 35 58 NE12 30.35R $$ SCZ027-028-034-036>038-045-046-048>050-GAZ119-141-311500- ...LAKE AND SUPPLEMENTAL COASTAL OBSERVATIONS... STATION/POSITION TIME TEMP WIND PRES WAVE SWELL AIR SEA DIR/SP/G HT/PER HT/PER/DIR (UTC) (F) (DEG/KT/KT) (MB) (FT/S) (FT/S/D) UPR LAKE MARION NOT AVBL WINYAH BAY NOT AVBL LAKE MURRAY 1300 35 CALM 1027.4S ACE BASIN NERRS NOT AVBL FORT PULASKI 1300 41 52 30/ 10/ 12 1028.6R SAPELO ISLAND 1300 40 20/ 3 1027.0S $$ ANZ835-935-AMZ111-154-330-350-352-354-370-450-454-472-311500- ...C-MAN AND BUOY OBSERVATIONS... STATION/POSITION TIME TEMP WIND PRES WAVE SWELL AIR SEA DIR/SP/G HT/PER HT/PER/DIR (UTC) (F) (DEG/KT/KT) (MB) (FT/S) (FT/S/D) BUOY 41004 1350 45 67 20/ 17/ 23 1027.2R 6/ 7 BUOY 41008 1350 49 54 50/ 16/ 19 1027.3R 5/ 6 FOLLY BEACH CMAN 1300 39 20/ 14/ 18 1028.6R CAPERS NEARSHORE 1300 40 50/ 17/ 21 N/A FRIPP NEARSHORE 1300 44 40/ 14/ 17 1027.0R STATION/POSITION TIME TEMP WIND PRES WAVE SWELL AIR SEA DIR/SP/G HT/PER HT/PER/DIR (UTC) (F) (DEG/KT/KT) (MB) (FT/S) (FT/S/D) 5E ST. MARYS GA 1321 56 N/A 4/ 5 FRYING PAN BUOY 1350 39 61 350/ 19/ 23 1028.3R 6/ 6 2/ 80/ 9 BUOY 41025 1350 34 61 340/ 27/ 33 1024.5R 7/ 6 2/ 30/10 CAPE LOOKOUT NC 1300 31 340/ 18/ 21 1026.2R BUOY 41002 1350 53 69 330/ 19/ 23 1023.8R 14/ 9 BUOY 41010 1320 62 73 10/ 16/ 21 1024.2R ST AUGUSTINE FL 1400 56 40/ 17/ 18 1026.9R $$

USA.gov is the U.S. government's official web portal to all federal, state and local government web resources and services.